テンペル-タットル彗星

55P/Tempel-Tuttle (2031)

English version
Home page
Updated on April 12, 2026

---------------------------------------------------------------------

・ プロフィール

・ 軌道要素

Perturbed ephemeris below is based on elements from MPC 31070. 

 Epoch = 2463000.50000 TT   T = 2463007.48133 TT
 Peri. =  172.87122         a =    10.4570704 AU
 Node  =  235.61030 J2000.0 e =     0.9077776
 Incl. =  162.57482         q =     0.9643761 AU

・ 星図

・ 光度変化

        m1 = 15.0 + 5 logΔ +  7.0 log r  [    ,-100]  (              〜2031年 2月 9日)
        m1 =  7.5 + 5 logΔ + 35.0 log r  [-100, -40]  (2031年 2月 9日〜2031年 4月10日)
        m1 =  8.5 + 5 logΔ + 20.0 log r  [ -40,    ]  (2031年 4月10日〜              )

---------------------------------------------------------------------

軌道要素はMinor Planet & Comet Ephemeris Serviceで計算したものです。
星図はステラナビゲータ Ver.11 (アストロアーツ) で作成したものです。
光度グラフはComet for Windowsで作成したものです。

---------------------------------------------------------------------

Copyright(C) Seiichi Yoshida (comet@aerith.net). All rights reserved.